Wiarton, Ontario

12:20 PM EST on December 15, 2017 (GMT -0500)
Wiarton

Weather History for CYVV - April, 2013

Change the Weather History Date:

Monday, April 22, 2013

  Actual Average Record
Temperature  
Mean Temperature 45 °F -  
Max Temperature 60 °F 58 °F 77 °F (2007)
Min Temperature 30 °F 38 °F 28 °F (2005)
Degree Days  
Heating Degree Days 20    
Moisture  
Dew Point 26 °F    
Average Humidity 48    
Maximum Humidity 69    
Minimum Humidity 27    
Precipitation  
Precipitation 0.00 in 0.09 in - ()
Sea Level Pressure  
Sea Level Pressure 30.41 in    
Wind  
Wind Speed 9 mph ()    
Max Wind Speed 17 mph    
Max Gust Speed -    
Visibility 15.0 miles    
Events      
Averages and records for this station are not official NWS values.
T = Trace of Precipitation, MM = Missing Value Source: Averaged Metar Reports

Daily Weather History Graph

Daily Weather History Graph

Search for Another Location

Airport or City:

Trip Planner

Search our weather history database for the weather conditions in past years. The results will help you decide how hot, cold, wet, or windy it might be!

Date:

Astronomy

Apr. 22, 2013 Rise Set
Actual Time 6:27 AM EDT 8:18 PM EDT
Civil Twilight 5:56 AM EDT 8:49 PM EDT
Nautical Twilight 5:18 AM EDT 9:28 PM EDT
Astronomical Twilight 4:37 AM EDT 10:09 PM EDT
Moon 4:58 PM EDT (4/22) 4:30 AM EDT (4/22)
Length of Visible Light 14h 53m
Length of Day
13h 50m
Waxing Gibbous, 87% of the Moon is Illuminated
Apr 22
Waxing Gibbous
Apr 25
Full
May 2
Last Quarter
May 9
New
May 18
First Quarter

Hourly Weather History & Observations

Time (EDT) Temp. Windchill Dew Point Humidity Pressure Visibility Wind Dir Wind Speed Gust Speed Precip Events Conditions
12:00 AM 33.8 °F 26.4 °F 21.2 °F 60% 30.55 in 15.0 mi SE 9.2 mph - N/A   Clear
1:00 AM 33.8 °F 28.6 °F 19.4 °F 56% 30.54 in 15.0 mi SE 5.8 mph - N/A   Clear
2:00 AM 32 °F - 20 °F 48% 30.52 in 15 mi SE 6.9 mph - -  
2:00 AM 32.0 °F 25.6 °F 19.4 °F 60% 30.52 in 15.0 mi SE 6.9 mph - N/A   Clear
3:00 AM 32.0 °F 25.6 °F 21.2 °F 64% 30.51 in 15.0 mi SE 6.9 mph - N/A   Clear
4:00 AM 33.8 °F 25.8 °F 19.4 °F 56% 30.49 in 15.0 mi ESE 10.4 mph - N/A   Clear
5:00 AM 32.0 °F 25.6 °F 21.2 °F 64% 30.47 in 15.0 mi SE 6.9 mph - N/A   Clear
6:00 AM 30.2 °F 24.3 °F 21.2 °F 69% 30.47 in 15.0 mi SE 5.8 mph - N/A   Partly Cloudy
7:00 AM 33.8 °F 28.6 °F 23.0 °F 65% 30.47 in 15.0 mi SE 5.8 mph - N/A   Partly Cloudy
8:00 AM 37 °F - 24 °F 46% 30.47 in 15 mi SSE 13.8 mph - -   Clear
8:00 AM 37.4 °F 28.9 °F 23.0 °F 56% 30.47 in 15.0 mi SSE 13.8 mph - N/A   Mostly Cloudy
9:00 AM 42.8 °F 35.8 °F 24.8 °F 49% 30.47 in 15.0 mi SE 13.8 mph - N/A   Overcast
10:00 AM 48.2 °F - 24.8 °F 40% 30.46 in 15.0 mi South 17.3 mph - N/A   Mostly Cloudy
11:00 AM 51.8 °F - 26.6 °F 38% 30.46 in 15.0 mi SSW 15.0 mph - N/A   Overcast
12:00 PM 53.6 °F - 24.8 °F 33% 30.44 in 15.0 mi SSE 11.5 mph - N/A   Mostly Cloudy
1:00 PM 57.2 °F - 24.8 °F 29% 30.42 in 15.0 mi South 15.0 mph - N/A   Scattered Clouds
2:00 PM 51.8 °F - 32.0 °F 47% 30.40 in 15.0 mi North 9.2 mph - N/A   Mostly Cloudy
3:00 PM 55.4 °F - 33.8 °F 44% 30.38 in 15.0 mi NW 5.8 mph - N/A   Mostly Cloudy
4:00 PM 55.4 °F - 32.0 °F 41% 30.34 in 15.0 mi North 4.6 mph - N/A   Partly Cloudy
5:00 PM 59.0 °F - 28.4 °F 31% 30.31 in 15.0 mi South 11.5 mph - N/A   Partly Cloudy
6:00 PM 59.0 °F - 30.2 °F 34% 30.30 in 15.0 mi South 13.8 mph - N/A   Partly Cloudy
7:00 PM 57.2 °F - 30.2 °F 36% 30.30 in 15.0 mi South 13.8 mph - N/A   Partly Cloudy
8:00 PM 55 °F - 30 °F 27% 30.29 in 15 mi South 10.4 mph - -   Clear
8:00 PM 55.4 °F - 30.2 °F 38% 30.29 in 15.0 mi South 10.4 mph - N/A   Partly Cloudy
9:00 PM 50.0 °F - 32.0 °F 50% 30.29 in 15.0 mi ESE 9.2 mph - N/A   Partly Cloudy
10:00 PM 48.2 °F - 32.0 °F 54% 30.29 in 15.0 mi ESE 9.2 mph - N/A   Clear
11:00 PM 46.4 °F 40.1 °F 30.2 °F 53% 30.28 in 15.0 mi ESE 15.0 mph - N/A   Clear